EHI
0 0 0 0 0 0 0 0 0 0 0 1 2 4 5 5 6 8 9 8 8 8 9 11 12 12 11 10 8 6 5 6 6 5 4 3 3 4 4 3 5 9 11 11
0 0 0 0 0 0 0 0 0 0 0 1 3 4 6 7 7 8 10 11 11 10 10 10 11 12 12 10 9 7 6 6 6 6 5 3 3 3 2 2 4 8 10 10
0 0 0 0 0 0 0 0 0 0 1 2 3 4 6 8 7 9 11 12 12 10 9 8 9 12 13 12 10 8 7 7 6 5 5 5 5 5 3 3 4 6 6 7
0 0 0 0 0 0 0 0 0 0 1 3 4 4 5 6 6 7 9 10 9 7 6 6 8 11 13 14 11 8 7 7 6 4 5 8 9 8 6 6 7 5 5 5
0 0 0 0 0 0 0 0 0 1 2 4 5 6 5 4 5 6 7 7 7 5 3 3 6 8 11 12 10 8 6 5 4 5 7 10 11 11 10 9 8 6 5 5
0 0 0 0 0 0 0 0 1 2 4 5 6 6 5 4 4 6 7 6 4 3 2 1 3 5 6 8 9 8 7 6 5 6 8 11 12 12 12 10 7 5 5 4
0 0 0 0 0 0 0 0 1 2 4 5 5 5 5 5 5 7 7 6 4 3 1 1 2 3 5 7 8 8 8 8 7 7 10 12 12 11 10 9 7 6 5 3
0 0 0 0 0 0 0 0 1 3 4 5 5 6 6 6 6 6 6 5 5 4 3 3 3 4 6 7 9 10 10 10 10 10 11 13 13 11 10 9 9 9 7 4
0 0 0 0 0 0 0 0 1 3 5 6 7 8 7 6 5 5 5 4 5 5 5 4 4 5 5 7 9 12 13 13 13 13 13 13 13 12 11 10 11 11 8 6
0 0 0 0 0 0 0 1 2 4 6 7 8 9 8 7 6 6 5 4 3 4 5 4 3 4 4 5 8 12 13 13 13 13 14 13 12 12 12 12 12 12 10 9
0 0 0 0 1 1 1 2 3 6 7 7 8 8 7 6 6 6 5 4 3 3 3 3 2 2 3 5 7 10 11 11 11 12 13 12 11 10 10 11 11 11 10 9
0 0 0 0 1 2 2 3 5 8 9 7 6 6 5 3 3 3 4 4 3 2 2 2 3 3 4 6 7 8 9 10 10 11 11 11 9 8 8 8 7 6 5 6
0 0 0 0 1 2 3 4 6 8 8 7 5 4 3 1 1 1 3 4 4 3 2 4 6 6 6 6 7 7 9 9 9 9 9 9 8 8 7 7 5 3 2 2
0 0 0 0 0 1 3 4 5 5 5 5 4 2 2 1 0 1 3 5 6 4 4 5 7 7 7 7 6 6 7 7 7 7 7 7 6 7 9 8 7 6 4 2
0 0 0 0 0 1 2 3 3 3 3 3 2 1 1 1 1 2 4 6 6 5 4 6 6 6 6 6 6 6 5 5 5 6 7 6 6 7 8 8 9 10 8 5
0 0 0 0 0 0 1 1 2 1 1 1 0 0 1 2 2 3 5 6 5 4 4 4 4 3 3 4 5 6 6 4 4 6 8 9 9 9 8 8 9 11 11 10
0 0 0 0 0 0 0 0 0 0 0 0 0 0 1 2 3 3 4 3 3 3 2 2 2 2 2 2 3 6 7 5 3 5 9 10 10 10 9 9 9 10 11 11
0 0 0 0 0 0 0 0 0 0 0 0 1 1 2 3 3 3 2 1 1 1 1 1 2 3 3 2 3 4 6 6 5 5 7 8 8 8 9 9 9 9 8 8
0 0 0 0 0 0 0 0 0 0 0 1 2 4 4 4 3 3 2 1 1 0 0 1 3 4 4 5 5 5 5 6 6 5 4 5 5 7 8 9 9 7 6 6
0 0 0 0 0 0 0 0 0 0 0 1 2 4 3 2 2 2 2 2 1 0 0 1 2 2 3 4 5 5 6 6 5 4 3 3 5 7 8 9 8 5 4 4
0 0 0 0 0 0 0 0 0 0 0 0 2 3 2 1 1 1 1 1 1 0 0 1 1 1 1 1 2 3 5 5 4 2 1 2 5 7 8 8 6 4 3 3
0 0 0 0 0 0 0 0 0 0 0 1 2 2 1 0 0 0 0 0 0 0 0 0 0 0 0 0 0 1 3 3 3 2 1 2 5 6 6 5 4 3 3 3
0 0 0 0 0 0 0 0 0 0 0 1 2 1 0 0 0 0 0 0 0 0 0 0 0 0 0 0 0 0 1 2 1 1 2 2 3 4 3 2 1 2 2 2
0 0 0 0 0 0 0 0 0 0 1 1 1 0 0 0 0 0 0 0 0 0 0 0 0 0 0 0 0 0 0 0 0 1 1 1 1 1 1 0 0 1 1 1
0 0 0 0 0 0 0 0 1 1 1 0 0 0 0 0 0 0 0 0 0 0 0 0 0 0 0 0 0 1 1 0 0 0 0 0 0 0 0 0 0 0 0 0
0 0 0 0 0 0 0 0 1 1 0 0 0 0 0 0 0 0 0 0 0 0 0 0 0 0 0 0 1 2 2 1 0 0 0 0 0 0 0 0 0 0 0 0
0 0 0 0 0 0 0 0 1 0 0 0 0 0 0 0 0 0 0 0 0 0 0 0 0 0 0 0 1 2 2 1 0 0 0 0 0 0 0 0 0 0 0 0
Wind_Speed
3 2 3 3 4 5 5 7 8 8 7 8 6 6 5 4 4 4 4 4 5 5 4 4 4 4 4 3 3 4 4 3 4 3 2 2 2 2 2 2 2 2 2 2
1 1 1 1 3 4 4 4 5 3 6 6 2 1 2 3 5 5 5 5 5 4 4 4 5 5 4 4 4 4 4 4 3 2 2 3 2 2 2 2 2 2 2 2
2 2 2 3 5 5 4 4 6 7 7 2 2 3 4 4 5 5 5 5 5 5 5 5 5 5 6 5 4 4 4 3 2 2 2 2 2 2 2 2 2 2 2 2
3 2 4 8 3 3 3 3 3 4 3 3 4 3 2 3 5 4 4 4 4 4 4 3 3 4 4 4 5 5 4 3 3 3 3 2 2 3 2 2 2 2 2 2
4 3 4 6 2 3 3 3 2 2 2 2 2 3 2 1 2 4 4 4 3 3 3 3 3 4 4 4 4 4 4 4 4 4 4 3 3 3 2 2 2 2 2 2
5 5 7 8 3 1 3 3 3 1 2 3 4 2 4 2 1 2 2 2 3 3 3 3 2 3 5 4 4 5 5 5 4 4 4 4 4 4 2 2 2 2 2 2
5 4 7 5 4 1 4 6 3 2 3 4 4 4 3 1 2 2 1 2 3 4 3 3 3 4 4 3 4 5 3 3 3 3 4 4 3 3 2 3 2 2 2 2
4 4 8 3 2 4 5 3 1 1 1 2 2 0 1 1 2 2 2 2 3 3 2 2 3 4 3 4 4 3 3 3 3 4 4 3 3 3 3 3 3 3 2 3
7 7 4 2 2 2 2 1 1 1 1 2 2 1 1 1 1 1 2 2 2 3 2 1 2 4 4 4 3 2 3 3 3 4 4 3 4 4 3 3 3 3 3 3
1 3 3 3 1 2 1 1 1 1 2 3 3 2 2 1 1 1 1 1 1 2 2 2 2 3 4 2 2 3 3 3 3 3 3 3 3 3 3 3 4 3 4 4
1 3 3 3 2 2 1 2 3 3 2 2 3 2 2 1 1 1 0 1 1 1 2 3 2 3 2 2 3 3 3 3 3 3 3 3 4 4 5 5 5 5 5 5
6 6 4 4 3 1 1 1 0 1 2 1 1 1 1 1 1 1 0 0 0 1 1 2 2 3 3 2 3 3 3 3 3 3 3 3 3 3 4 5 6 8 8 6
5 4 4 4 3 1 1 1 1 0 1 1 1 1 2 1 1 1 1 1 2 2 2 2 2 3 3 3 3 4 4 4 3 3 3 3 3 4 3 3 4 6 8 8
3 2 1 2 2 2 1 1 1 1 1 0 1 1 1 1 1 2 3 3 3 2 2 3 3 4 4 3 4 4 4 5 4 3 3 3 4 4 4 3 3 3 5 8
4 4 5 3 2 2 1 1 1 1 1 1 1 1 1 2 2 3 3 2 1 2 3 3 4 5 3 3 4 4 4 3 3 3 3 3 3 3 4 4 4 4 3 3
2 2 2 2 2 2 1 1 1 3 3 2 2 3 3 3 3 3 3 2 2 4 4 4 5 5 3 3 3 3 4 5 4 3 4 4 4 4 4 4 4 4 4 4
4 3 3 3 3 3 3 4 4 4 3 3 4 3 3 2 2 3 3 3 3 4 4 4 5 4 3 3 4 3 3 4 5 4 4 4 4 5 5 4 4 5 5 5
5 6 5 5 4 4 3 3 4 4 4 5 4 3 4 4 5 5 5 3 2 3 4 5 5 4 4 3 3 3 3 4 4 4 4 4 5 4 4 5 5 5 4 4
2 3 3 4 4 4 4 4 4 4 4 4 4 5 5 5 5 5 4 3 4 5 6 5 5 4 4 4 4 3 4 4 4 4 4 5 5 5 4 5 5 5 4 4
1 1 2 2 2 2 3 3 3 3 4 4 4 4 4 5 4 4 4 4 5 6 5 5 4 4 4 4 4 3 4 5 5 4 4 4 5 5 5 5 5 5 4 4
1 1 1 1 2 2 2 2 3 4 4 4 4 5 5 5 4 3 4 5 6 5 5 5 4 4 4 3 4 3 4 4 4 4 4 4 5 5 5 5 5 5 4 4
1 1 1 1 1 2 3 3 3 4 4 4 4 4 4 4 4 4 5 6 6 5 4 3 4 4 4 4 3 3 3 4 4 4 4 4 4 4 5 5 5 4 4 4
1 1 1 1 2 2 3 3 3 3 4 4 4 4 5 4 3 3 5 4 4 5 4 3 4 6 6 3 3 3 4 4 4 4 4 4 4 4 4 4 4 3 3 3
1 1 1 2 1 1 3 5 4 3 4 4 4 4 4 3 3 4 4 5 5 5 3 4 5 6 5 3 3 4 4 4 3 3 3 3 3 3 3 3 3 3 3 3
1 1 1 1 1 2 4 4 4 3 3 3 4 4 3 3 3 3 3 3 3 4 3 4 5 5 4 3 3 4 3 3 3 2 3 3 2 3 3 3 3 3 3 3
1 1 2 3 3 3 2 2 2 3 2 3 3 3 3 2 2 2 2 2 3 3 3 2 3 3 2 2 2 3 2 2 2 2 2 2 2 2 2 2 3 2 2 2
1 1 1 2 2 2 2 2 2 3 2 2 3 3 3 2 2 2 2 2 2 2 2 2 2 2 2 2 2 1 1 1 1 1 1 1 1 1 1 2 1 1 1 1
Wind_Direction
206 216 180 193 190 177 176 180 182 218 221 243 234 222 214 186 165 157 164 168 175 179 178 169 165 167 163 163 162 162 162 186 205 200 189 196 210 212 210 209 219 219 223 237
10 348 154 239 229 195 197 184 199 211 250 249 238 178 171 177 172 180 186 186 187 181 171 174 179 176 169 170 165 159 175 195 194 181 184 200 214 214 216 226 236 225 223 230
225 310 52 267 233 203 201 199 178 201 229 212 176 196 202 195 189 193 193 186 181 185 185 187 192 183 177 175 154 157 175 181 181 180 197 213 210 198 211 218 207 224 232 228
135 102 212 243 253 179 178 235 220 214 217 198 194 193 203 187 183 190 189 182 187 186 184 186 180 174 165 150 153 165 179 184 181 188 205 203 192 200 208 206 209 219 230 234
129 166 262 286 264 163 167 261 260 209 217 182 136 66 354 261 190 195 187 179 183 182 176 166 168 167 150 152 164 175 192 198 198 194 193 191 200 211 206 200 218 220 229 235
131 154 218 238 268 259 126 259 276 207 184 155 120 131 252 250 181 168 148 148 149 145 132 144 170 155 151 170 180 200 209 209 205 197 194 201 210 211 200 198 216 220 238 244
148 187 250 254 295 87 162 235 277 222 189 162 176 208 226 173 153 155 141 145 139 135 148 172 161 148 160 177 208 219 214 205 203 203 205 206 206 205 197 194 204 222 244 256
143 173 245 296 67 161 216 256 242 216 197 183 209 184 79 122 143 132 112 122 136 141 163 173 153 152 169 208 224 208 192 201 213 214 211 202 197 207 200 194 203 226 244 266
181 206 247 284 227 240 201 208 227 194 205 160 142 118 57 81 130 129 136 141 140 152 167 169 169 172 195 221 209 188 192 208 217 215 212 201 197 202 203 204 214 230 238 255
233 276 285 294 308 330 338 215 207 147 131 125 126 140 126 129 122 108 121 120 128 144 164 204 205 207 218 225 191 181 198 214 217 212 216 212 207 206 208 215 224 230 236 247
240 272 325 324 318 307 350 35 51 50 71 118 123 141 163 169 185 176 106 89 124 167 205 234 229 229 228 200 176 189 210 216 216 214 215 218 220 219 215 220 218 219 228 231
214 219 194 245 274 297 63 22 77 60 5 1 130 170 180 189 199 160 155 124 121 241 247 256 246 247 241 207 185 191 211 220 219 218 219 224 227 244 238 234 236 230 230 227
215 216 207 236 272 295 257 294 319 89 217 276 292 171 180 193 191 200 225 229 228 241 246 251 248 252 249 224 201 202 213 219 219 216 221 223 229 234 253 268 260 249 245 241
205 171 239 257 259 279 282 330 351 345 332 260 266 234 182 183 211 221 239 245 241 239 244 244 247 256 254 229 212 218 222 224 223 223 224 225 230 235 238 244 257 262 252 246
235 210 211 228 267 300 313 358 33 322 311 333 326 255 208 206 233 251 256 249 237 243 251 252 256 262 258 234 222 226 227 229 226 228 228 230 232 234 238 242 247 257 262 258
208 186 194 207 234 250 252 224 215 259 262 251 240 237 234 224 231 252 261 234 217 243 250 245 253 260 251 233 229 231 235 238 229 225 228 230 230 230 234 237 244 250 253 254
177 210 208 210 229 235 235 227 220 232 243 241 237 232 228 227 248 260 264 255 239 246 249 245 251 258 245 228 226 234 235 236 231 231 231 231 232 230 232 234 239 246 251 248
205 215 209 199 211 228 245 247 240 238 239 242 239 229 231 230 237 247 254 259 265 273 267 259 258 260 252 240 235 237 236 236 233 234 235 232 234 231 230 233 238 244 252 248
201 211 221 220 219 219 232 245 248 249 246 241 232 235 242 244 242 244 245 239 244 259 265 257 255 252 254 248 234 231 236 241 243 242 238 236 238 238 233 235 240 243 243 243
294 241 231 245 241 226 236 250 254 264 264 254 245 246 256 261 255 246 243 248 246 243 249 253 254 252 252 252 242 234 236 240 244 246 244 241 243 243 240 240 241 243 242 241
264 253 239 243 267 270 256 253 256 268 273 260 242 243 251 262 261 245 240 257 264 253 250 249 246 246 246 251 248 244 245 245 241 240 242 245 247 246 244 242 241 240 240 242
253 237 246 246 253 281 280 271 266 271 277 271 257 251 254 264 265 261 250 246 257 259 254 247 245 245 250 255 246 242 242 242 241 240 243 245 246 249 250 247 243 242 239 237
275 254 258 262 254 268 291 294 285 281 279 274 268 262 256 255 245 242 266 261 254 257 254 249 248 252 256 249 243 242 240 242 243 244 243 242 244 245 245 245 244 240 239 239
281 267 266 272 282 298 297 293 293 284 278 280 275 264 256 260 266 251 247 265 268 265 261 256 252 252 249 242 243 245 244 242 242 244 243 243 240 241 239 235 238 239 238 241
263 263 274 284 284 275 274 287 305 308 305 301 298 291 274 241 239 258 265 266 269 270 270 262 255 254 248 245 246 247 242 236 234 234 233 233 234 236 235 233 234 237 239 240
255 256 255 249 249 258 267 277 286 292 297 302 306 310 312 307 283 275 279 281 283 279 273 270 265 259 254 250 254 257 248 232 232 235 236 238 231 229 233 240 249 251 253 254
304 300 295 300 294 273 267 272 277 288 287 283 296 307 308 306 307 311 313 309 306 303 296 284 275 269 267 266 264 257 235 220 230 222 226 236 230 230 238 249 259 261 266 265